1504764000.88,51219,14.44,73276.3,-1.91,-4.21,-4.41,0,*51
1504764002.11,51220,14.44,73278.8,-1.91,-4.21,-4.37,0,*5A
1504764003.34,51221,14.44,73278.5,-1.91,-3.87,-4.21,0,*57
1504764004.57,51222,14.44,73282.0,-1.87,-3.75,-4.41,0,*58
1504764005.83,51223,14.44,73296.5,-1.87,-3.79,-5.07,0,*56
1504764007.08,51224,14.44,73302.8,-1.87,-4.33,-5.85,0,*52
1504764008.33,51225,14.44,73284.8,-1.89,-5.07,-6.63,0,*50
1504764009.53,51226,14.44,73280.3,-1.85,-5.55,-7.19,0,*54
1504764010.75,51227,14.44,73278.8,-1.85,-6.13,-8.07,0,*54
1504764011.94,51228,14.44,73284.0,-1.85,-7.19,-8.63,0,*52
1504764013.15,51229,14.44,73286.0,-1.85,-7.27,-8.55,0,*5B
1504764014.4,51230,14.44,73288.3,-1.83,-7.27,-8.97,0,*5B
1504764015.67,51231,14.44,73288.3,-1.83,-7.65,-9.83,0,*58
1504764016.93,51232,14.44,73290.5,-1.83,-8.21,-10.63,0,*62
1504764018.19,51233,14.44,73286.0,-1.83,-9.01,-11.51,0,*60
1504764019.42,51234,14.44,73280.3,-1.83,-10.23,-12.21,0,*5B
1504764020.71,51235,14.44,73286.3,-1.83,-10.79,-11.37,0,*51
1504764021.93,51236,14.44,73284.5,-1.83,-9.97,-10.23,0,*6E
1504764023.19,51237,14.44,73282.3,-1.77,-9.37,-9.97,0,*59
1504764024.44,51238,14.44,73286.5,-1.81,-9.41,-10.67,0,*69
1504764025.7,51239,14.44,73298.5,-1.81,-9.11,-11.89,0,*6C
1504764026.9,51240,14.44,73292.0,-1.81,-9.79,-14.19,0,*60
1504764028.11,51241,14.44,73298.0,-1.81,-11.23,-16.59,0,*51
1504764029.35,51242,14.44,73280.5,-1.81,-13.69,-22.17,0,*53
1504764030.57,51243,14.44,73294.3,-1.81,-17.11,-25.19,0,*50
1504764031.83,51244,14.44,73274.5,-1.81,-22.47,-28.91,0,*5F
1504764033.05,51245,14.44,73282.5,-1.81,-25.61,-29.29,0,*5F
1504764034.34,51246,14.44,73276.8,-1.83,-28.09,-31.85,0,*52
1504764035.62,51247,14.44,73282.8,-1.83,-30.61,-32.63,0,*5F
1504764036.85,51248,14.44,73280.0,-1.85,-31.95,-33.15,0,*5C
1504764038.11,51249,14.44,73280.3,-1.83,-31.33,-32.63,0,*57
1504764039.37,51250,14.44,73280.5,-1.83,-31.01,-32.07,0,*5C
1504764040.58,51251,14.44,73286.0,-1.85,-31.45,-32.51,0,*58
1504764041.79,51252,14.44,73284.5,-1.85,-30.83,-31.45,0,*56
1504764043.07,51253,14.44,73292.3,-1.83,-31.39,-31.51,0,*54
1504764044.31,51254,14.44,73290.8,-1.83,-30.83,-29.79,0,*50
1504764045.55,51255,14.44,73286.3,-1.85,-30.55,-30.05,0,*5F
1504764046.8,51256,14.44,73288.3,-1.85,-30.55,-31.39,0,*52
1504764048.04,51257,14.44,73292.0,-1.87,-30.55,-31.01,0,*5A
1504764049.25,51258,14.44,73282.3,-1.89,-32.13,-32.39,0,*53
1504764050.5,51259,14.44,73296.8,-1.87,-32.63,-32.35,0,*57
1504764051.73,51260,14.44,73296.5,-1.87,-32.35,-31.29,0,*50
1504764052.95,51261,14.44,73294.5,-1.87,-34.25,-32.23,0,*5F
1504764054.19,51262,14.44,73298.8,-1.89,-34.01,-31.79,0,*58
1504764055.39,51263,14.44,73298.8,-1.89,-33.83,-31.79,0,*54
1504764056.65,51264,14.44,73302.5,-1.89,-33.77,-31.51,0,*52
1504764057.9,51265,14.44,73298.5,-1.91,-32.97,-30.45,0,*51
1504764059.1,51266,14.44,73300.3,-1.89,-32.35,-28.85,0,*56
1504764060.34,51267,14.44,73296.8,-1.89,-32.01,-26.33,0,*53
1504764061.55,51268,14.44,73306.3,-1.93,-29.79,-23.09,0,*5E
1504764062.77,51269,14.44,73306.8,-1.93,-26.23,-21.33,0,*54
1504764063.98,51270,14.44,73304.0,-1.93,-22.57,-18.69,0,*5E
1504764065.24,51271,14.44,73298.0,-1.91,-20.59,-17.21,0,*52
1504764066.45,51272,14.44,73300.3,-1.93,-19.95,-14.69,0,*56
1504764067.67,51273,14.44,73296.0,-1.93,-17.69,-11.73,0,*54
1504764068.87,51274,14.44,73298.0,-1.93,-14.29,-9.97,0,*67
1504764070.12,51275,14.44,73296.0,-1.93,-11.89,-9.41,0,*62
1504764071.35,51276,14.44,73292.3,-1.93,-10.63,-9.79,0,*6F
1504764072.59,51277,14.44,73290.3,-1.91,-11.01,-10.09,0,*56
1504764073.85,51278,14.44,73290.0,-1.91,-11.51,-10.31,0,*57
1504764075.1,51279,14.44,73296.8,-1.91,-11.73,-10.89,0,*55
1504764076.36,51280,14.44,73292.8,-1.91,-11.37,-11.19,0,*5B
1504764077.56,51281,14.44,73302.3,-1.89,-10.57,-11.15,0,*58
1504764078.76,51282,14.44,73306.0,-1.89,-10.45,-12.25,0,*58
1504764080.0,51283,14.44,73304.8,-1.87,-10.93,-15.25,0,*5B
1504764081.26,51284,14.44,73308.8,-1.87,-12.25,-19.27,0,*5D
1504764082.51,51285,14.44,73294.5,-1.87,-14.65,-19.41,0,*5E
1504764083.76,51286,14.44,73296.0,-1.89,-14.97,-19.65,0,*58
1504764084.99,51287,14.44,73298.8,-1.89,-16.59,-21.27,0,*54
1504764086.22,51288,14.44,73298.0,-1.87,-18.49,-21.43,0,*58
1504764087.48,51289,14.44,73292.8,-1.89,-19.61,-20.35,0,*5C
1504764088.69,51290,14.44,73302.3,-1.89,-19.95,-18.65,0,*51
1504764089.93,51291,14.44,73298.3,-1.89,-18.99,-15.39,0,*59
1504764091.17,51292,14.44,73294.5,-1.89,-15.57,-13.79,0,*57
1504764092.42,51293,14.44,73296.0,-1.87,-13.93,-13.97,0,*56
1504764093.65,51294,14.44,73298.0,-1.89,-14.51,-13.69,0,*57
1504764094.91,51295,14.44,73298.8,-1.89,-14.01,-13.37,0,*58
1504764096.14,51296,14.44,73298.8,-1.89,-13.83,-13.65,0,*51
1504764097.4,51297,14.44,73310.3,-1.89,-13.79,-13.83,0,*5D
1504764098.63,51298,14.44,73312.0,-1.89,-13.65,-14.79,0,*5D
1504764099.88,51299,14.44,73310.0,-1.93,-14.83,-16.23,0,*55
1504764101.14,51300,14.44,73316.5,-1.91,-16.03,-16.09,0,*54
1504764102.41,51301,14.44,73308.0,-1.91,-15.43,-15.71,0,*5E
1504764103.65,51302,14.44,73302.8,-1.93,-15.21,-17.25,0,*58
1504764104.85,51303,14.44,73302.0,-1.93,-15.71,-17.69,0,*54
1504764106.09,51304,14.44,73308.5,-1.95,-16.41,-16.37,0,*5F
1504764107.3,51305,14.44,73292.3,-1.95,-15.11,-13.47,0,*5A
1504764108.53,51306,14.44,73288.3,-1.97,-12.89,-14.47,0,*5A
1504764109.77,51307,14.44,73286.5,-1.95,-13.93,-15.95,0,*5D
1504764110.97,51308,14.44,73290.8,-1.97,-15.53,-16.79,0,*5B
1504764112.2,51309,14.44,73292.5,-1.97,-15.63,-17.93,0,*5C
1504764113.4,51310,14.44,73298.0,-1.97,-16.37,-19.13,0,*50
1504764114.63,51311,14.44,73290.0,-1.97,-18.35,-19.51,0,*5B
1504764115.89,51312,14.44,73288.8,-1.97,-19.57,-16.13,0,*54
1504764117.15,51313,14.44,73290.8,-2.01,-17.03,-10.41,0,*57
1504764118.38,51314,14.44,73294.8,-1.99,-10.97,-7.23,0,*6A
1504764119.63,51315,14.44,73296.8,-1.99,-7.43,-6.01,0,*55
1504764120.85,51316,14.44,73290.5,-1.99,-6.39,-5.39,0,*52
1504764122.13,51317,14.44,73294.5,-1.99,-5.85,-5.19,0,*55
1504764123.37,51318,14.44,73294.5,-1.97,-5.69,-5.19,0,*56
1504764124.6,51319,14.44,73282.5,-1.97,-5.93,-5.55,0,*5A
1504764125.82,51320,14.44,73282.5,-1.97,-5.69,-5.43,0,*52
1504764127.06,51321,14.44,73294.3,-1.97,-5.03,-4.93,0,*53
1504764128.32,51322,14.44,73282.3,-1.95,-4.57,-5.07,0,*5E
1504764129.54,51323,14.44,73280.3,-1.97,-4.57,-5.93,0,*50
1504764130.8,51324,14.44,73284.5,-1.95,-4.89,-7.39,0,*54
1504764132.07,51325,14.44,73292.3,-1.95,-5.61,-9.41,0,*53
1504764133.33,51326,14.44,73280.5,-1.95,-8.51,-11.19,0,*6A
1504764134.52,51327,14.44,73282.0,-1.97,-8.67,-10.23,0,*64
1504764135.77,51328,14.44,73288.8,-1.95,-8.45,-9.53,0,*56
1504764136.99,51329,14.44,73284.0,-1.95,-8.75,-9.71,0,*54
1504764138.22,51330,14.44,73300.3,-1.95,-8.59,-10.57,0,*6E
1504764139.49,51331,14.44,73294.3,-1.95,-10.35,-12.79,0,*52
1504764140.74,51332,14.44,73296.8,-1.95,-12.07,-14.19,0,*52
1504764141.98,51333,14.44,73302.5,-1.93,-13.83,-16.59,0,*5E
1504764143.23,51334,14.44,73290.8,-1.93,-15.01,-17.21,0,*5B
1504764144.43,51335,14.44,73288.8,-1.93,-14.61,-18.41,0,*54
1504764145.66,51336,14.44,73296.3,-1.93,-16.23,-20.63,0,*58
1504764146.93,51337,14.44,73288.3,-1.91,-20.39,-22.47,0,*51
1504764148.16,51338,14.44,73288.3,-1.91,-20.43,-19.99,0,*58
1504764149.4,51339,14.44,73292.8,-1.91,-20.39,-19.37,0,*50
1504764150.62,51340,14.44,73298.3,-1.93,-21.33,-16.37,0,*58
1504764151.88,51341,14.44,73294.8,-1.91,-17.11,-14.61,0,*5F
1504764153.12,51342,14.44,73292.8,-1.93,-14.01,-15.63,0,*5F
1504764154.37,51343,14.44,73288.8,-1.91,-13.47,-17.41,0,*5B
1504764155.62,51344,14.44,73294.3,-1.91,-14.75,-18.25,0,*57
1504764156.87,51345,14.44,73298.5,-1.87,-15.71,-20.99,0,*58
1504764158.08,51346,14.44,73294.8,-1.89,-20.93,-24.77,0,*5B
1504764159.28,51347,14.44,73298.3,-1.89,-24.97,-27.13,0,*5B
1504764160.56,51348,14.44,73298.5,-1.91,-27.23,-24.71,0,*56
1504764161.8,51349,14.44,73296.5,-1.91,-24.51,-21.17,0,*54
1504764163.07,51350,14.44,73298.8,-1.91,-18.93,-15.15,0,*58
1504764164.32,51351,14.44,73296.5,-1.91,-15.01,-13.19,0,*55
1504764165.61,51352,14.44,73294.8,-1.91,-13.83,-12.75,0,*51
1504764166.87,51353,14.44,73296.0,-1.91,-13.55,-12.11,0,*59
1504764168.1,51354,14.44,73296.3,-1.93,-13.33,-10.49,0,*53
1504764169.33,51355,14.44,73302.3,-1.93,-12.11,-9.27,0,*63
1504764170.56,51356,14.44,73296.3,-1.93,-10.23,-8.07,0,*60
1504764171.78,51357,14.44,73296.3,-1.93,-8.97,-8.07,0,*57
1504764173.03,51358,14.44,73290.5,-1.93,-7.73,-7.91,0,*5D
1504764174.25,51359,14.44,73288.0,-1.93,-7.61,-9.23,0,*58
1504764175.47,51360,14.44,73290.5,-1.95,-8.89,-10.85,0,*69
1504764176.71,51361,14.44,73290.8,-1.93,-10.63,-12.21,0,*5F
1504764177.99,51362,14.44,73294.3,-1.95,-11.55,-12.79,0,*53
1504764179.25,51363,14.44,73278.3,-1.95,-12.53,-14.37,0,*5B
1504764180.52,51364,14.44,73286.3,-1.95,-14.01,-15.07,0,*5F
1504764181.78,51365,14.44,73290.0,-1.95,-14.89,-12.79,0,*50
1504764183.0,51366,14.44,73284.0,-1.97,-16.23,-10.93,0,*55
1504764184.23,51367,14.44,73290.0,-1.95,-15.63,-8.45,0,*63
1504764185.51,51368,14.44,73292.8,-1.95,-12.79,-5.93,0,*66
1504764186.75,51369,14.44,73298.5,-1.95,-8.33,-5.07,0,*5F
1504764187.99,51370,14.44,73294.3,-1.95,-6.63,-5.35,0,*5D
1504764189.26,51371,14.44,73290.8,-1.95,-5.73,-5.81,0,*51
1504764190.48,51372,14.44,73278.5,-1.95,-5.35,-6.05,0,*5F
1504764191.74,51373,14.44,73286.3,-1.95,-5.69,-7.05,0,*56
1504764192.93,51374,14.44,73276.8,-1.97,-6.59,-8.33,0,*59
1504764194.17,51375,14.44,73276.0,-1.97,-7.39,-9.45,0,*5F
1504764195.39,51376,14.44,73278.5,-1.97,-7.87,-11.07,0,*66
1504764196.66,51377,14.44,73278.5,-1.95,-9.83,-17.17,0,*68
1504764197.92,51378,14.44,73274.5,-1.99,-17.31,-20.53,0,*59
1504764199.14,51379,14.44,73270.0,-1.97,-16.79,-14.75,0,*58
1504764200.4,51380,14.44,73280.0,-1.97,-12.75,-12.35,0,*54
1504764201.63,51381,14.44,73284.0,-1.97,-11.23,-12.15,0,*57
1504764202.89,51382,14.44,73290.5,-1.97,-12.07,-11.63,0,*53
1504764204.09,51383,14.44,73288.5,-1.97,-11.23,-11.19,0,*5A
1504764205.38,51384,14.44,73290.8,-1.95,-11.63,-12.35,0,*56
1504764206.62,51385,14.44,73292.5,-1.95,-12.21,-11.23,0,*56
1504764207.84,51386,14.44,73292.8,-1.95,-13.07,-9.27,0,*6D
1504764209.03,51387,14.44,73280.5,-1.93,-10.05,-6.39,0,*6B
1504764210.28,51388,14.44,73280.8,-1.91,-6.43,-4.85,0,*56
1504764211.5,51389,14.44,73282.8,-1.91,-4.99,-4.53,0,*59
1504764212.71,51390,14.44,73280.5,-1.91,-4.53,-4.99,0,*51
1504764213.96,51391,14.44,73278.0,-1.91,-4.89,-6.31,0,*57
1504764215.18,51392,14.44,73280.3,-1.91,-5.51,-8.29,0,*57
1504764216.4,51393,14.44,73282.5,-1.91,-6.59,-9.97,0,*59
1504764217.64,51394,14.44,73282.0,-1.91,-8.85,-11.19,0,*6E
1504764218.9,51395,14.44,73286.5,-1.91,-11.07,-10.49,0,*59
1504764220.18,51396,14.44,73278.0,-1.91,-10.75,-7.65,0,*66
1504764221.4,51397,14.44,73276.3,-1.91,-7.23,-6.59,0,*5C
1504764222.67,51398,14.44,73280.3,-1.91,-6.23,-7.65,0,*5C
1504764223.86,51399,14.44,73280.5,-1.93,-6.69,-9.23,0,*5D
1504764225.11,51400,14.44,73282.0,-1.91,-7.95,-11.23,0,*63
1504764226.34,51401,14.44,73276.8,-1.93,-9.15,-12.89,0,*65
1504764227.57,51402,14.44,73286.8,-1.93,-11.01,-15.01,0,*5D
1504764228.82,51403,14.44,73280.8,-1.91,-13.33,-19.03,0,*53
1504764230.08,51404,14.44,73270.3,-1.93,-15.35,-17.63,0,*5E
1504764231.28,51405,14.44,73272.3,-1.93,-14.19,-13.73,0,*55
1504764232.51,51406,14.44,73274.5,-1.93,-12.43,-13.33,0,*5B
1504764233.75,51407,14.44,73278.3,-1.93,-11.63,-15.29,0,*56
1504764234.96,51408,14.44,73278.8,-1.93,-13.73,-22.03,0,*56
1504764236.18,51409,14.44,73268.5,-1.93,-20.29,-26.81,0,*56
1504764237.41,51410,14.44,73274.3,-1.93,-25.65,-28.91,0,*5C
1504764238.68,51411,14.44,73276.0,-1.95,-23.85,-24.11,0,*57
1504764239.92,51412,14.44,73262.3,-1.95,-22.53,-21.39,0,*51
1504764241.18,51413,14.44,73264.3,-1.95,-19.07,-19.57,0,*5A
1504764242.45,51414,14.44,73270.3,-1.95,-17.93,-23.43,0,*52
1504764243.71,51415,14.44,73274.3,-1.95,-19.75,-22.17,0,*55
1504764244.99,51416,14.44,73272.0,-1.95,-19.57,-23.99,0,*51
1504764246.24,51417,14.44,73266.3,-1.95,-25.91,-30.01,0,*56
1504764247.5,51418,14.44,73266.5,-1.95,-28.75,-31.17,0,*58
1504764248.75,51419,14.44,73272.3,-1.95,-25.91,-29.17,0,*57
1504764249.99,51420,14.44,73268.5,-1.95,-29.61,-33.21,0,*50
1504764251.24,51421,14.44,73270.5,-1.95,-30.39,-33.15,0,*53
1504764252.47,51422,14.44,73274.5,-1.93,-30.27,-31.91,0,*57
1504764253.69,51423,14.44,73270.8,-1.93,-31.51,-31.33,0,*5E
1504764254.94,51424,14.44,73268.5,-1.93,-30.61,-33.89,0,*58
1504764256.18,51425,14.44,73276.5,-1.95,-32.39,-35.01,0,*56
1504764257.43,51426,14.44,73276.3,-1.93,-33.31,-34.83,0,*51
1504764258.67,51427,14.44,73276.5,-1.97,-34.71,-35.53,0,*5B
1504764259.89,51428,14.44,73280.3,-1.97,-34.83,-34.71,0,*58
1504764261.11,51429,14.44,73286.8,-1.97,-35.53,-34.89,0,*52
1504764262.33,51430,14.44,73290.8,-1.97,-35.23,-33.55,0,*5B
1504764263.56,51431,14.44,73280.3,-1.99,-34.89,-32.01,0,*55
1504764264.79,51432,14.44,73266.5,-2.01,-33.83,-30.05,0,*5F
1504764266.05,51433,14.44,73250.5,-2.01,-31.23,-27.19,0,*5D
1504764267.28,51434,14.44,73228.5,-2.01,-29.89,-24.31,0,*5A
1504764268.49,51435,14.44,73246.5,-2.01,-27.67,-21.43,0,*55
1504764269.71,51436,14.44,73254.5,-1.99,-23.89,-18.83,0,*56
1504764270.97,51437,14.5,73262.3,-1.99,-23.69,-18.11,0,*52
1504764272.21,51438,14.44,73270.0,-1.97,-21.27,-18.59,0,*57
1504764273.47,51439,14.44,73268.0,-1.95,-18.93,-19.51,0,*58
1504764274.73,51440,14.44,73264.0,-1.95,-19.57,-21.13,0,*52
1504764275.98,51441,14.44,73270.8,-1.93,-19.81,-21.67,0,*5D
1504764277.19,51442,14.44,73262.5,-1.93,-21.17,-22.97,0,*56
1504764278.39,51443,14.44,73278.3,-1.93,-22.03,-22.63,0,*5A
1504764279.63,51444,14.44,73272.0,-1.91,-22.93,-22.57,0,*51
1504764280.83,51445,14.44,73268.8,-1.93,-26.23,-22.63,0,*5A
1504764282.06,51446,14.44,73266.8,-1.93,-27.03,-21.03,0,*5F
1504764283.26,51447,14.44,73270.5,-1.93,-25.19,-18.73,0,*5A
1504764284.52,51448,14.44,73278.3,-1.93,-24.11,-17.21,0,*54
1504764285.78,51449,14.44,73274.8,-1.91,-22.17,-16.75,0,*57
1504764286.99,51450,14.44,73270.5,-1.89,-20.09,-16.75,0,*5B
1504764288.24,51451,14.44,73268.5,-1.87,-17.93,-16.55,0,*51
1504764289.51,51452,14.44,73268.8,-1.87,-16.13,-16.75,0,*59
1504764290.76,51453,14.44,73264.0,-1.85,-16.69,-17.79,0,*5A
1504764292.02,51454,14.44,73268.0,-1.83,-16.45,-18.55,0,*54
1504764293.25,51455,14.44,73268.0,-1.83,-17.49,-19.99,0,*59
1504764294.49,51456,14.44,73274.3,-1.81,-19.31,-20.59,0,*5F
1504764295.75,51457,14.44,73270.3,-1.81,-21.83,-21.03,0,*52
1504764297.02,51458,14.44,73274.5,-1.77,-23.03,-20.39,0,*56
1504764298.29,51459,14.44,73272.8,-1.77,-22.97,-19.85,0,*56
1504764299.52,51460,14.44,73272.8,-1.77,-21.63,-20.05,0,*56
1504764300.78,51461,14.44,73280.8,-1.75,-19.85,-20.99,0,*53
1504764302.02,51462,14.44,73284.0,-1.73,-18.79,-23.09,0,*5E
1504764303.28,51463,14.44,73290.8,-1.73,-19.23,-24.93,0,*55
1504764304.54,51464,14.44,73288.0,-1.71,-21.03,-26.93,0,*5B
1504764305.82,51465,14.44,73292.0,-1.73,-22.77,-26.17,0,*54
1504764307.07,51466,14.44,73290.3,-1.71,-24.21,-23.75,0,*51
1504764308.3,51467,14.44,73292.3,-1.71,-22.03,-19.31,0,*5F
1504764309.56,51468,14.44,73284.0,-1.69,-18.69,-16.17,0,*57
1504764310.8,51469,14.44,73276.5,-1.69,-16.75,-14.61,0,*56
1504764312.09,51470,14.44,73286.5,-1.69,-14.01,-15.01,0,*58
1504764313.36,51471,14.44,73276.5,-1.67,-14.83,-17.21,0,*5D
1504764314.59,51472,14.44,73276.8,-1.67,-15.39,-18.21,0,*51
1504764315.85,51473,14.44,73272.3,-1.65,-17.03,-19.71,0,*5D
1504764317.13,51474,14.44,73278.5,-1.65,-18.35,-21.33,0,*5D
1504764318.41,51475,14.44,73286.3,-1.65,-21.27,-24.11,0,*50
1504764319.62,51476,14.44,73282.8,-1.63,-25.19,-25.19,0,*55
1504764320.85,51477,14.44,73284.0,-1.63,-26.39,-23.33,0,*5B
1504764322.11,51478,14.44,73290.8,-1.61,-26.23,-17.55,0,*5A
1504764323.34,51479,14.44,73292.5,-1.63,-21.09,-12.79,0,*5D
1504764324.56,51480,14.44,73292.8,-1.63,-16.41,-10.09,0,*56
1504764325.84,51481,14.44,73292.3,-1.61,-12.15,-8.51,0,*64
1504764327.09,51482,14.44,73290.5,-1.61,-8.75,-9.53,0,*59
1504764328.36,51483,14.44,73288.3,-1.61,-9.01,-12.61,0,*61
1504764329.62,51484,14.44,73288.5,-1.61,-11.89,-17.31,0,*5F
1504764330.82,51485,14.44,73298.3,-1.55,-14.69,-19.51,0,*5A
1504764332.03,51486,14.44,73290.0,-1.59,-18.11,-20.43,0,*5F
1504764333.26,51487,14.44,73288.8,-1.55,-19.75,-18.89,0,*5C
1504764334.5,51488,14.44,73294.5,-1.59,-18.89,-15.11,0,*51
1504764335.74,51489,14.44,73294.8,-1.55,-17.25,-10.93,0,*5A
1504764336.99,51490,14.44,73294.3,-1.55,-12.11,-8.03,0,*60
1504764338.18,51491,14.44,73282.5,-1.55,-9.89,-7.53,0,*50
1504764339.43,51492,14.44,73292.8,-1.53,-9.01,-7.31,0,*51
1504764340.68,51493,14.44,73294.5,-1.53,-9.23,-7.69,0,*5D
1504764341.92,51494,14.44,73296.5,-1.53,-8.75,-7.69,0,*58
1504764343.17,51495,14.44,73290.5,-1.53,-8.63,-7.99,0,*51
1504764344.43,51496,14.44,73278.0,-1.53,-8.07,-7.87,0,*5F
1504764345.67,51497,14.44,73276.0,-1.53,-7.35,-8.67,0,*51
1504764346.9,51498,14.44,73280.3,-1.51,-7.43,-10.01,0,*64
1504764348.12,51499,14.44,73282.8,-1.49,-8.97,-12.43,0,*6E
1504764349.4,51500,14.44,73288.8,-1.49,-11.81,-14.93,0,*5B
1504764350.66,51501,14.44,73298.8,-1.47,-15.67,-18.01,0,*5F
1504764351.92,51502,14.44,73300.3,-1.47,-22.63,-19.81,0,*55
1504764353.15,51503,14.44,73298.5,-1.45,-25.09,-17.11,0,*5A
1504764354.37,51504,14.44,73288.5,-1.45,-21.93,-14.23,0,*58
1504764355.62,51505,14.44,73282.0,-1.49,-17.73,-12.53,0,*5F
1504764356.88,51506,14.44,73270.8,-1.47,-15.49,-11.81,0,*55
1504764358.11,51507,14.44,73262.8,-1.49,-13.65,-10.01,0,*5B
1504764359.36,51508,14.44,73258.8,-1.47,-12.07,-8.63,0,*62
1504764360.65,51509,14.44,73272.8,-1.47,-10.67,-6.97,0,*62
1504764361.9,51510,14.44,73286.5,-1.43,-8.75,-5.85,0,*54
1504764363.18,51511,14.44,73288.0,-1.43,-7.95,-4.93,0,*52
1504764364.44,51512,14.44,73284.5,-1.39,-6.63,-4.01,0,*5F
1504764365.71,51513,14.44,73286.8,-1.35,-5.65,-3.47,0,*52
1504764366.92,51514,14.44,73284.3,-1.31,-4.49,-2.95,0,*50
1504764368.11,51515,14.44,73282.8,-1.29,-4.45,-3.39,0,*53
1504764369.33,51516,14.44,73288.5,-1.27,-3.79,-3.19,0,*54
1504764370.56,51517,14.44,73284.5,-1.27,-4.21,-3.79,0,*59
1504764371.75,51518,14.44,73286.3,-1.25,-4.17,-3.79,0,*51
1504764373.01,51519,14.44,73282.8,-1.27,-4.81,-4.73,0,*50
1504764374.28,51520,14.44,73286.0,-1.27,-4.93,-4.93,0,*57
1504764375.46,51521,14.44,73286.5,-1.29,-4.45,-4.45,0,*58
1504764376.66,51522,14.44,73288.8,-1.29,-4.57,-4.61,0,*5E
1504764377.89,51523,14.44,73284.5,-1.29,-5.73,-5.77,0,*5E
1504764379.09,51524,14.44,73280.8,-1.29,-6.01,-5.97,0,*51
1504764380.33,51525,14.44,73286.0,-1.29,-5.61,-5.65,0,*58
1504764381.6,51526,14.44,73282.8,-1.31,-5.81,-5.69,0,*50
1504764382.82,51527,14.44,73282.5,-1.31,-6.05,-5.55,0,*51
1504764384.07,51528,14.44,73286.8,-1.35,-6.69,-5.89,0,*51
1504764385.31,51529,14.44,73288.8,-1.31,-5.69,-4.99,0,*57
1504764386.53,51530,14.44,73288.0,-1.31,-6.43,-6.01,0,*57
1504764387.75,51531,14.44,73284.3,-1.31,-6.81,-6.43,0,*5E
1504764388.99,51532,14.5,73288.3,-1.31,-7.53,-6.93,0,*5E
1504764390.24,51533,14.44,73286.5,-1.31,-7.95,-7.15,0,*5A
1504764391.48,51534,14.44,73288.8,-1.31,-8.07,-7.53,0,*5B
1504764392.73,51535,14.44,73288.8,-1.31,-8.21,-8.07,0,*50
1504764393.94,51536,14.44,73284.0,-1.31,-8.67,-8.45,0,*57
1504764395.17,51537,14.5,73288.8,-1.31,-8.89,-8.21,0,*54
1504764396.39,51538,14.44,73292.3,-1.31,-8.59,-6.85,0,*56
1504764397.61,51539,14.44,73294.8,-1.29,-8.25,-5.77,0,*5B
1504764398.83,51540,14.44,73290.5,-1.29,-7.11,-5.31,0,*5F
1504764400.08,51541,14.44,73286.3,-1.29,-6.27,-5.61,0,*5F
1504764401.3,51542,14.44,73272.8,-1.29,-5.35,-5.85,0,*56
1504764402.52,51543,14.44,73252.5,-1.29,-5.47,-6.63,0,*59
1504764403.75,51544,14.44,73256.0,-1.29,-5.97,-7.61,0,*50
1504764404.99,51545,14.44,73274.5,-1.27,-6.19,-7.49,0,*50
1504764406.26,51546,14.44,73294.0,-1.27,-6.63,-7.61,0,*54
1504764407.49,51547,14.44,73280.5,-1.27,-7.87,-7.83,0,*52
1504764408.74,51548,14.5,73284.8,-1.27,-8.37,-7.73,0,*56
1504764409.95,51549,14.5,73282.8,-1.27,-8.75,-8.17,0,*5C
1504764411.15,51550,14.44,73284.5,-1.29,-8.93,-8.29,0,*5F
1504764412.39,51551,14.44,73284.8,-1.35,-8.33,-7.27,0,*58
1504764413.62,51552,14.44,73288.3,-1.35,-7.87,-6.59,0,*53
1504764414.86,51553,14.5,73292.0,-1.31,-8.21,-6.97,0,*57
1504764416.12,51554,14.44,73282.8,-1.35,-7.61,-7.05,0,*55
1504764417.37,51555,14.44,73284.5,-1.35,-7.11,-7.65,0,*55
1504764418.59,51556,14.44,73292.5,-1.35,-7.49,-8.45,0,*56
1504764419.86,51557,14.44,73282.5,-1.39,-7.91,-7.91,0,*58
1504764421.08,51558,14.5,73290.8,-1.35,-6.59,-6.55,0,*57
1504764422.32,51559,14.5,73290.0,-1.35,-6.05,-5.77,0,*5C
1504764423.55,51560,14.5,73290.0,-1.39,-5.97,-5.47,0,*51
1504764424.8,51561,14.5,73288.3,-1.39,-5.55,-5.19,0,*55
1504764426.05,51562,14.5,73290.0,-1.35,-5.35,-5.11,0,*54
1504764427.32,51563,14.44,73286.0,-1.35,-5.11,-5.15,0,*57
1504764428.57,51564,14.44,73288.0,-1.35,-4.65,-5.23,0,*57
1504764429.85,51565,14.44,73286.5,-1.35,-5.03,-6.19,0,*5D
1504764431.09,51566,14.5,73290.8,-1.31,-5.11,-6.47,0,*52
1504764432.36,51567,14.44,73284.5,-1.35,-5.81,-7.73,0,*58
1504764433.64,51568,14.44,73280.5,-1.31,-6.93,-9.41,0,*5C
1504764434.91,51569,14.44,73290.3,-1.31,-7.77,-10.75,0,*69
1504764436.14,51570,14.5,73294.0,-1.35,-9.67,-12.89,0,*6B
1504764437.4,51571,14.44,73292.8,-1.35,-10.93,-15.85,0,*52
1504764438.64,51572,14.5,73294.8,-1.35,-14.11,-18.73,0,*5B
1504764439.9,51573,14.5,73290.8,-1.35,-15.63,-17.41,0,*50
1504764441.15,51574,14.5,73288.8,-1.35,-15.01,-18.73,0,*5D
1504764442.44,51575,14.5,73296.0,-1.39,-16.13,-25.55,0,*5A
1504764443.7,51576,14.44,73294.3,-1.39,-23.89,-28.91,0,*59
1504764444.95,51577,14.5,73294.3,-1.41,-27.83,-30.95,0,*54
1504764446.15,51578,14.5,73286.3,-1.41,-26.61,-26.49,0,*50
1504764447.41,51579,14.44,73284.5,-1.45,-23.85,-25.97,0,*5A
1504764448.65,51580,14.5,73286.8,-1.45,-23.13,-27.83,0,*54
1504764449.94,51581,14.44,73278.3,-1.47,-28.25,-31.95,0,*59
1504764451.2,51582,14.5,73282.0,-1.49,-28.91,-31.79,0,*59
1504764452.49,51583,14.5,73282.0,-1.49,-28.75,-31.23,0,*5D
1504764453.74,51584,14.44,73282.8,-1.51,-29.35,-28.79,0,*51
1504764455.0,51585,14.44,73284.3,-1.53,-24.61,-23.99,0,*5B
1504764456.24,51586,14.5,73282.5,-1.55,-21.23,-22.27,0,*59
1504764457.48,51587,14.44,73280.8,-1.55,-20.53,-23.43,0,*5D
1504764458.73,51588,14.44,73280.8,-1.55,-21.33,-23.29,0,*59
1504764459.95,51589,14.5,73286.8,-1.59,-22.11,-23.09,0,*55
1504764461.19,51590,14.5,73288.3,-1.55,-24.83,-22.27,0,*51
1504764462.45,51591,14.44,73282.3,-1.55,-23.23,-20.53,0,*5C
1504764463.66,51592,14.5,73290.8,-1.55,-19.91,-17.49,0,*50
1504764464.9,51593,14.5,73294.0,-1.55,-18.07,-15.57,0,*52
1504764466.13,51594,14.5,73292.0,-1.55,-15.89,-14.69,0,*52
1504764467.42,51595,14.44,73280.5,-1.53,-13.79,-14.79,0,*5D
1504764468.65,51596,14.5,73278.0,-1.53,-12.97,-16.41,0,*56
1504764469.91,51597,14.44,73282.8,-1.53,-13.07,-17.21,0,*58
1504764471.17,51598,14.5,73284.3,-1.53,-13.55,-19.31,0,*5F
1504764472.46,51599,14.5,73284.5,-1.53,-15.85,-24.21,0,*5A
1504764473.69,51600,14.44,73286.5,-1.51,-21.27,-28.85,0,*56
1504764474.94,51601,14.44,73280.5,-1.53,-24.31,-29.57,0,*59
1504764476.22,51602,14.5,73286.8,-1.53,-24.67,-30.55,0,*53
1504764477.43,51603,14.44,73284.0,-1.59,-27.51,-31.79,0,*51
1504764478.64,51604,14.5,73288.3,-1.55,-30.27,-34.41,0,*53
1504764479.9,51605,14.44,73284.5,-1.59,-32.07,-34.53,0,*5D
1504764481.15,51606,14.44,73284.3,-1.61,-29.83,-33.67,0,*53
1504764482.44,51607,14.5,73284.8,-1.61,-31.91,-34.65,0,*5D
1504764483.7,51608,14.44,73284.0,-1.61,-32.13,-34.01,0,*59
1504764484.93,51609,14.44,73284.0,-1.63,-31.05,-33.73,0,*5C
1504764486.17,51610,14.44,73280.3,-1.63,-30.67,-33.89,0,*54
1504764487.41,51611,14.44,73280.3,-1.63,-31.39,-34.47,0,*5A
1504764488.6,51612,14.5,73284.5,-1.63,-31.01,-34.25,0,*56
1504764489.82,51613,14.5,73290.8,-1.63,-29.61,-32.91,0,*51
1504764491.04,51614,14.5,73292.5,-1.63,-29.45,-33.03,0,*5A
1504764492.27,51615,14.5,73288.5,-1.63,-30.33,-32.97,0,*5E
1504764493.53,51616,14.44,73284.0,-1.63,-29.39,-32.97,0,*5F
1504764494.79,51617,14.44,73286.5,-1.63,-30.61,-32.45,0,*54
1504764496.0,51618,14.5,73290.0,-1.63,-30.83,-32.39,0,*5C
1504764497.23,51619,14.5,73292.5,-1.63,-33.15,-32.97,0,*55
1504764498.49,51620,14.5,73290.3,-1.65,-32.97,-32.69,0,*53
1504764499.75,51621,14.5,73294.5,-1.65,-31.29,-31.39,0,*52
1504764501.01,51622,14.44,73288.0,-1.67,-29.51,-30.83,0,*55
1504764502.27,51623,14.5,73292.0,-1.71,-28.43,-28.63,0,*56